GW6795 Weather Reports


time (UTC)temp
C
wind
direction
speed
KPH
gust
KPH
rain 1hr
cm
rain 24hr
cm
rain mn
cm
humidity
%
barometer
mb
20260502232047 16 300 4.8 4.8 0.00 0.00 0.00 79 1013.9
20260502231547 16 316 6.4 6.4 0.00 0.00 0.00 79 1013.9
20260502231046 16 312 3.2 6.4 0.00 0.00 0.00 79 1013.5
20260502230546 16 305 4.8 6.4 0.00 0.00 0.00 79 1013.5
20260502230046 16 332 4.8 6.4 0.00 0.00 0.00 78 1013.5
20260502225546 16 12 9.7 9.7 0.00 0.00 0.00 79 1013.9
20260502225047 16 305 3.2 9.7 0.00 0.00 0.00 78 1013.5
20260502224546 16 326 4.8 9.7 0.00 0.00 0.00 79 1013.5
20260502224046 16 287 4.8 6.4 0.00 0.00 0.00 79 1013.5
20260502223547 16 315 4.8 8.0 0.00 0.00 0.00 79 1013.5
20260502223047 16 341 4.8 8.0 0.00 0.00 0.00 80 1013.5
20260502222546 15 355 6.4 9.7 0.00 0.00 0.00 81 1013.9
20260502222046 15 347 6.4 8.0 0.00 0.00 0.00 81 1013.9
20260502221546 15 352 6.4 9.7 0.00 0.00 0.00 81 1013.9
20260502221047 15 359 6.4 11.3 0.00 0.00 0.00 82 1013.5
20260502220546 15 314 3.2 6.4 0.00 0.00 0.00 82 1013.9
20260502220046 16 305 6.4 6.4 0.00 0.00 0.05 81 1014.2
20260502215546 16 344 6.4 6.4 0.00 0.00 0.05 81 1014.2
20260502215046 16 295 8.0 8.0 0.00 0.00 0.05 80 1015.2
20260502214547 16 296 4.8 6.4 0.00 0.00 0.05 80 1014.9
20260502214047 16 293 3.2 9.7 0.00 0.00 0.05 80 1014.9
20260502213547 16 273 6.4 9.7 0.00 0.00 0.05 79 1014.9
20260502213047 16 290 4.8 6.4 0.00 0.00 0.05 80 1014.9
20260502212547 16 286 8.0 9.7 0.00 0.00 0.05 79 1015.2
20260502212046 17 310 8.0 9.7 0.00 0.00 0.05 78 1015.2
20260502211547 17 327 1.6 14.5 0.00 0.00 0.05 75 1015.2
20260502211046 17 322 4.8 9.7 0.00 0.00 0.05 74 1014.9
20260502210546 17 302 14.5 14.5 0.00 0.00 0.05 73 1014.9
20260502210046 17 276 6.4 8.0 0.00 0.00 0.05 74 1014.9
20260502205546 17 235 8.0 8.0 0.00 0.00 0.05 73 1014.2
20260502205047 17 289 3.2 6.4 0.00 0.00 0.05 73 1013.9
20260502204546 17 312 3.2 3.2 0.00 0.00 0.05 73 1013.5
20260502204046 17 315 3.2 4.8 0.00 0.00 0.05 73 1013.5
20260502203546 17 308 3.2 4.8 0.00 0.00 0.05 72 1013.5
20260502203046 17 322 3.2 6.4 0.00 0.00 0.05 72 1013.5
20260502202546 17 298 3.2 4.8 0.00 0.00 0.05 71 1013.9
20260502202046 18 270 1.6 4.8 0.00 0.00 0.05 71 1013.9
20260502201546 18 263 6.4 6.4 0.00 0.00 0.05 70 1013.9
20260502201046 18 279 4.8 4.8 0.00 0.00 0.05 70 1013.5
20260502200546 18 297 3.2 4.8 0.00 0.00 0.05 69 1013.9
20260502200047 18 283 4.8 6.4 0.00 0.00 0.05 67 1013.9
20260502195546 18 338 6.4 6.4 0.00 0.00 0.05 66 1013.9
20260502195048 18 298 3.2 6.4 0.00 0.00 0.05 65 1013.9
20260502194546 19 299 3.2 6.4 0.00 0.00 0.05 65 1013.9
20260502194046 19 340 6.4 8.0 0.00 0.00 0.05 64 1013.9
20260502193546 20 300 3.2 11.3 0.00 0.00 0.05 62 1014.2
20260502193046 20 324 0.0 11.3 0.00 0.00 0.05 63 1014.2
20260502192547 20 327 4.8 12.9 0.00 0.00 0.05 63 1014.2
20260502192047 20 287 1.6 11.3 0.00 0.00 0.05 65 1014.2
20260502191547 20 298 4.8 8.0 0.05 0.00 0.05 65 1014.2
20260502191046 21 331 8.0 11.3 0.36 0.00 0.05 65 1014.2
20260502190546 21 334 4.8 6.4 0.23 0.00 0.05 64 1014.2
20260502190047 22 225 3.2 8.0 0.00 0.00 0.00 56 1014.2
20260502185546 22 343 4.8 8.0 0.00 0.00 0.00 54 1014.2
20260502185046 22 5 8.0 8.0 0.00 0.00 0.00 52 1013.9
20260502184547 22 308 3.2 4.8 0.00 0.00 0.00 52 1013.9
20260502184046 22 301 3.2 4.8 0.00 0.00 0.00 52 1013.9
20260502183546 22 317 3.2 8.0 0.00 0.00 0.00 52 1013.9
20260502183046 23 348 4.8 6.4 0.00 0.00 0.00 51 1013.9
20260502182547 23 343 6.4 6.4 0.00 0.00 0.00 51 1013.9
20260502182046 23 325 4.8 8.0 0.00 0.00 0.00 50 1013.9
20260502181546 23 319 8.0 8.0 0.00 0.00 0.00 50 1013.9
20260502181046 23 315 3.2 4.8 0.00 0.00 0.00 50 1013.9
20260502180547 23 328 3.2 6.4 0.00 0.00 0.00 50 1013.9
20260502164046 25 309 3.2 6.4 0.00 0.00 0.00 45 1014.6
20260502163546 25 249 4.8 4.8 0.00 0.00 0.00 45 1014.6
20260502163047 25 300 3.2 4.8 0.00 0.00 0.00 45 1014.6
20260502162546 25 333 3.2 8.0 0.00 0.00 0.00 44 1014.6
20260502162046 25 295 3.2 8.0 0.00 0.00 0.00 45 1014.9
20260502161547 25 272 6.4 8.0 0.00 0.00 0.00 45 1014.6
20260502161046 25 191 0.0 9.7 0.00 0.00 0.00 45 1014.9
20260502160546 25 275 4.8 4.8 0.00 0.00 0.00 44 1014.9
20260502152047 24 235 4.8 4.8 0.00 0.00 0.00 46 1015.6
20260502151546 24 272 3.2 4.8 0.00 0.00 0.00 47 1015.6
20260502151046 24 265 4.8 8.0 0.00 0.00 0.00 47 1015.6
20260502150547 24 293 3.2 8.0 0.00 0.00 0.00 47 1015.6
20260502130546 24 251 4.8 8.0 0.00 0.00 0.00 48 1017.3
20260502123548 25 234 8.0 11.3 0.00 0.00 0.00 47 1017.6
20260502123046 24 330 4.8 14.5 0.00 0.00 0.00 48 1017.3
20260502122546 25 320 6.4 9.7 0.00 0.00 0.00 47 1017.6
20260502122047 25 299 1.6 8.0 0.00 0.00 0.00 47 1017.6
20260502121547 25 283 1.6 8.0 0.00 0.00 0.00 47 1017.9
20260502121047 25 335 4.8 9.7 0.00 0.00 0.00 47 1017.6
20260502120547 25 273 4.8 12.9 0.00 0.00 0.00 47 1017.6
20260502115546 25 235 4.8 8.0 0.00 0.00 0.00 46 1017.9
20260502115046 25 306 3.2 8.0 0.00 0.00 0.00 46 1017.9
20260502114546 25 309 3.2 8.0 0.00 0.00 0.00 46 1017.9
20260502114047 24 295 3.2 6.4 0.00 0.00 0.00 47 1017.9
20260502113546 23 243 6.4 9.7 0.00 0.00 0.00 48 1017.9
20260502113046 23 92 3.2 11.3 0.00 0.00 0.00 48 1017.9
20260502112547 24 230 0.0 9.7 0.00 0.00 0.00 47 1018.3
20260502112051 24 232 3.2 11.3 0.00 0.00 0.00 47 1018.3
20260502111547 25 281 1.6 6.4 0.00 0.00 0.00 47 1017.9
20260502111046 24 280 1.6 11.3 0.00 0.00 0.00 47 1017.9
20260502110547 24 221 3.2 8.0 0.00 0.00 0.00 47 1018.3
20260502110046 23 267 3.2 4.8 0.00 0.00 0.00 48 1018.3
20260502105546 23 319 3.2 4.8 0.00 0.00 0.00 48 1018.3
20260502105047 23 273 3.2 8.0 0.00 0.00 0.00 48 1018.6
20260502104546 23 212 3.2 9.7 0.00 0.00 0.00 48 1018.3
20260502104046 24 300 4.8 9.7 0.00 0.00 0.00 47 1018.3
20260502103546 24 287 4.8 8.0 0.00 0.00 0.00 47 1018.3
20260502103046 24 249 1.6 14.5 0.00 0.00 0.00 47 1018.6
20260502102546 25 264 3.2 8.0 0.00 0.00 0.00 46 1018.6
20260502102046 23 16 4.8 14.5 0.00 0.00 0.00 47 1018.6
20260502101546 23 317 4.8 11.3 0.00 0.00 0.00 48 1018.6
20260502101046 23 236 6.4 6.4 0.00 0.00 0.00 48 1019.0
20260502100546 23 297 4.8 8.0 0.00 0.00 0.00 47 1018.6
20260502091047 21 337 0.0 9.7 0.00 0.00 0.00 49 1019.0
20260502090546 21 303 4.8 8.0 0.00 0.00 0.00 49 1019.0
20260502071047 17 238 6.4 11.3 0.00 0.00 0.00 52 1019.6
20260502070546 16 244 8.0 11.3 0.00 0.00 0.00 52 1019.6
20260502070046 16 226 1.6 8.0 0.00 0.00 0.00 54 1019.6
20260502065547 16 286 1.6 4.8 0.00 0.00 0.00 57 1019.6
20260502065047 15 265 4.8 6.4 0.00 0.00 0.00 60 1019.6
20260502064548 14 298 4.8 8.0 0.00 0.00 0.00 63 1019.6
20260502064046 14 291 3.2 4.8 0.00 0.00 0.00 62 1019.6
20260502063546 14 270 3.2 6.4 0.00 0.00 0.00 63 1019.6
20260502063047 14 286 4.8 4.8 0.00 0.00 0.00 64 1019.6
20260502062546 13 253 3.2 8.0 0.00 0.00 0.00 62 1019.3
20260502062046 13 289 3.2 4.8 0.00 0.00 0.00 63 1019.3
20260502061546 13 273 4.8 6.4 0.00 0.00 0.00 61 1019.6
20260502061046 13 280 3.2 4.8 0.00 0.00 0.00 60 1019.6
20260502060546 14 261 4.8 11.3 0.00 0.00 0.00 57 1019.3
20260502060046 14 271 3.2 9.7 0.00 0.00 0.00 54 1019.3
20260502055111 14 234 8.0 8.0 0.00 0.00 0.00 53 1019.6
20260502054547 13 265 3.2 6.4 0.00 0.00 0.00 53 1019.3
20260502054046 13 266 4.8 8.0 0.00 0.00 0.00 52 1019.3
20260502053546 13 253 4.8 8.0 0.00 0.00 0.00 52 1019.3
20260502053046 13 255 0.0 6.4 0.00 0.00 0.00 52 1019.6
20260502052546 13 240 6.4 9.7 0.00 0.00 0.00 51 1019.3
20260502052047 13 281 3.2 8.0 0.00 0.00 0.00 51 1019.3
20260502051546 13 272 4.8 6.4 0.00 0.00 0.00 52 1019.3
20260502051046 13 276 4.8 8.0 0.00 0.00 0.00 52 1019.3
20260502050546 13 264 6.4 6.4 0.00 0.00 0.00 52 1019.3
20260502050046 12 282 3.2 6.4 0.00 0.00 0.00 53 1019.3
20260502045546 12 287 6.4 8.0 0.00 0.00 0.00 54 1019.3
20260502045046 12 251 3.2 6.4 0.00 0.00 0.00 54 1019.3
20260502044546 12 327 4.8 4.8 0.00 0.00 0.00 55 1019.0
20260502044046 11 287 3.2 4.8 0.00 0.00 0.00 56 1019.3
20260502043546 11 277 4.8 8.0 0.00 0.00 0.00 57 1019.3
20260502043046 11 269 4.8 8.0 0.00 0.00 0.00 57 1019.6
20260502042546 11 290 1.6 4.8 0.00 0.00 0.00 58 1019.0
20260502042046 11 276 4.8 4.8 0.00 0.00 0.00 58 1019.3
20260502041547 11 313 3.2 6.4 0.00 0.00 0.00 59 1019.3
20260502041047 11 314 4.8 6.4 0.00 0.00 0.00 59 1019.3
20260502040546 10 255 4.8 8.0 0.00 0.00 0.00 60 1019.3
20260502040046 10 326 4.8 6.4 0.00 0.00 0.00 59 1019.3
20260502035546 10 318 4.8 4.8 0.00 0.00 0.00 59 1019.3
20260502035046 10 263 3.2 4.8 0.00 0.00 0.00 60 1019.6
20260502034547 10 267 4.8 6.4 0.00 0.00 0.00 60 1019.6
20260502034047 10 305 3.2 4.8 0.00 0.00 0.00 60 1019.6
20260502033547 10 313 3.2 6.4 0.00 0.00 0.00 60 1019.6
20260502033046 10 277 4.8 6.4 0.00 0.00 0.00 60 1019.6
20260502032546 10 274 4.8 4.8 0.00 0.00 0.00 60 1019.6
20260502032046 10 336 4.8 4.8 0.00 0.00 0.00 60 1019.6
20260502031546 10 305 4.8 4.8 0.00 0.00 0.00 61 1019.6
20260502031046 10 296 4.8 4.8 0.00 0.00 0.00 61 1019.6
20260502030547 10 316 3.2 4.8 0.00 0.00 0.00 61 1019.6
20260502030046 10 305 3.2 4.8 0.00 0.00 0.00 61 1019.6
20260502025547 10 300 4.8 4.8 0.00 0.00 0.00 61 1020.0
20260502025046 10 288 3.2 4.8 0.00 0.00 0.00 61 1020.0
20260502024547 10 300 3.2 4.8 0.00 0.00 0.00 60 1019.6
20260502024046 10 292 3.2 4.8 0.00 0.00 0.00 60 1019.6
20260502023546 10 291 3.2 4.8 0.00 0.00 0.00 60 1019.6
20260502023046 10 281 3.2 4.8 0.00 0.00 0.00 59 1019.6
20260502022547 11 300 4.8 4.8 0.00 0.00 0.00 58 1019.6
20260502022047 11 309 4.8 4.8 0.00 0.00 0.00 58 1020.0
20260502021546 11 303 3.2 4.8 0.00 0.00 0.00 58 1019.6
20260502021047 11 305 3.2 4.8 0.00 0.00 0.00 59 1019.6
20260502020547 11 286 4.8 4.8 0.00 0.00 0.00 59 1020.0
20260502020047 11 294 3.2 4.8 0.00 0.00 0.00 59 1020.0
20260502015546 10 298 3.2 4.8 0.00 0.00 0.00 60 1020.3
20260502015047 10 299 3.2 4.8 0.00 0.00 0.00 60 1020.3
20260502014547 11 291 3.2 4.8 0.00 0.00 0.00 59 1020.3
20260502014046 11 298 3.2 4.8 0.00 0.00 0.00 59 1020.3
20260502013546 11 286 4.8 4.8 0.00 0.00 0.00 58 1020.3
20260502013047 11 283 4.8 4.8 0.00 0.00 0.00 58 1020.0
20260502012546 11 297 3.2 4.8 0.00 0.00 0.00 58 1020.3
20260502012047 11 305 3.2 4.8 0.00 0.00 0.00 59 1020.3
20260502011546 11 290 4.8 4.8 0.00 0.00 0.00 59 1020.3
20260502011046 11 288 4.8 4.8 0.00 0.00 0.00 58 1020.3
20260502010547 11 297 3.2 4.8 0.00 0.00 0.00 57 1020.7
20260502010046 12 284 3.2 4.8 0.00 0.00 0.00 56 1020.3
20260502005546 12 287 3.2 4.8 0.00 0.00 0.00 56 1020.7
20260502005046 12 274 4.8 4.8 0.00 0.00 0.00 55 1020.3
20260502004546 12 294 3.2 4.8 0.00 0.00 0.00 54 1020.3
20260502004046 12 314 3.2 4.8 0.00 0.00 0.00 54 1020.7
20260502003547 12 305 3.2 4.8 0.00 0.00 0.00 54 1020.7
20260502003046 12 307 3.2 4.8 0.00 0.00 0.00 53 1020.7
20260502002548 12 308 3.2 4.8 0.00 0.00 0.00 53 1020.7
20260502002046 12 305 3.2 4.8 0.00 0.00 0.00 53 1020.7
20260502001547 12 302 3.2 4.8 0.00 0.00 0.00 53 1020.7
20260502001046 12 286 3.2 4.8 0.00 0.00 0.00 54 1020.7
20260502000548 12 294 4.8 4.8 0.00 0.00 0.00 53 1020.7
20260502000046 12 302 3.2 4.8 0.00 0.00 0.00 53 1021.0
20260501235546 12 305 4.8 4.8 0.00 0.00 0.00 53 1021.0
20260501235046 13 302 3.2 4.8 0.00 0.00 0.00 53 1021.0
20260501234546 13 291 3.2 3.2 0.00 0.00 0.00 53 1021.3
20260501234048 13 273 4.8 4.8 0.00 0.00 0.00 52 1021.0
20260501233546 13 309 1.6 4.8 0.00 0.00 0.00 52 1021.0
20260501233046 13 300 3.2 6.4 0.00 0.00 0.00 52 1021.3
20260501232547 13 323 3.2 4.8 0.00 0.00 0.00 52 1021.0